Stündliche Wetter Aarle

Heute, 21 Juni, Montag

Zeit Temperatur Niederschläge Wind Luftdruck Luftfeuchtigkeit
00:00 +15°C° 0.5 mm 6 m/S 753 mmHg 93%
01:00 +15°C° 1.7 mm 6 m/S 753 mmHg 94%
02:00 +14°C° 1.7 mm 6 m/S 753 mmHg 95%
03:00 +14°C° 1.7 mm 6 m/S 752 mmHg 96%
04:00 +13°C° 1.1 mm 6 m/S 753 mmHg 96%
05:00 +13°C° 1.1 mm 6 m/S 753 mmHg 96%
06:00 +13°C° 1.1 mm 6 m/S 753 mmHg 95%
07:00 +13°C° 0.3 mm 5 m/S 753 mmHg 95%
08:00 +13°C° 0.3 mm 5 m/S 754 mmHg 95%
09:00 +13°C° 0.3 mm 4 m/S 754 mmHg 95%
10:00 +13°C° 0.1 mm 4 m/S 755 mmHg 94%
11:00 +13°C° 0.1 mm 4 m/S 756 mmHg 93%
12:00 +13°C° 0.1 mm 4 m/S 756 mmHg 92%
13:00 +14°C° 0 mm 4 m/S 756 mmHg 89%
14:00 +15°C° 0 mm 4 m/S 757 mmHg 85%
15:00 +15°C° 0 mm 5 m/S 757 mmHg 81%
16:00 +15°C° 0 mm 5 m/S 757 mmHg 80%
17:00 +15°C° 0 mm 4 m/S 758 mmHg 79%
18:00 +15°C° 0 mm 4 m/S 758 mmHg 78%
19:00 +14°C° 0 mm 4 m/S 758 mmHg 78%
20:00 +14°C° 0 mm 4 m/S 759 mmHg 77%
21:00 +13°C° 0 mm 4 m/S 759 mmHg 76%
22:00 +12°C° 0 mm 4 m/S 759 mmHg 81%
23:00 +11°C° 0 mm 4 m/S 759 mmHg 86%

Morgen, 22 Juni, Dienstag

Zeit Temperatur Niederschläge Wind Luftdruck Luftfeuchtigkeit
00:00 +11°C° 0 mm 3 m/S 759 mmHg 91%
01:00 +10°C° 0 mm 3 m/S 759 mmHg 91%
02:00 +10°C° 0 mm 4 m/S 760 mmHg 91%
03:00 +10°C° 0 mm 4 m/S 760 mmHg 90%
04:00 +11°C° 0 mm 4 m/S 760 mmHg 87%
05:00 +12°C° 0 mm 5 m/S 760 mmHg 84%
06:00 +13°C° 0 mm 5 m/S 760 mmHg 81%
07:00 +14°C° 0 mm 5 m/S 760 mmHg 76%
08:00 +15°C° 0 mm 5 m/S 760 mmHg 71%
09:00 +16°C° 0 mm 6 m/S 761 mmHg 66%
10:00 +16°C° 0 mm 5 m/S 761 mmHg 65%
11:00 +17°C° 0 mm 5 m/S 761 mmHg 63%
12:00 +17°C° 0 mm 5 m/S 761 mmHg 62%
13:00 +18°C° 0 mm 4 m/S 761 mmHg 63%
14:00 +18°C° 0 mm 4 m/S 761 mmHg 64%
15:00 +18°C° 0 mm 4 m/S 761 mmHg 65%
16:00 +18°C° 0 mm 4 m/S 761 mmHg 67%
17:00 +18°C° 0 mm 4 m/S 761 mmHg 68%
18:00 +18°C° 0 mm 4 m/S 761 mmHg 70%
19:00 +16°C° 0.1 mm 5 m/S 761 mmHg 71%
20:00 +15°C° 0.1 mm 5 m/S 762 mmHg 73%
21:00 +14°C° 0.1 mm 6 m/S 762 mmHg 74%
22:00 +14°C° 0 mm 5 m/S 762 mmHg 76%
23:00 +13°C° 0 mm 5 m/S 763 mmHg 77%

übermorgen, 23 Juni, Mittwoch

Zeit Temperatur Niederschläge Wind Luftdruck Luftfeuchtigkeit
00:00 +13°C° 0 mm 4 m/S 763 mmHg 79%
01:00 +13°C° 0 mm 4 m/S 763 mmHg 79%
02:00 +12°C° 0 mm 4 m/S 763 mmHg 80%
03:00 +12°C° 0 mm 4 m/S 763 mmHg 81%
04:00 +12°C° 0 mm 4 m/S 763 mmHg 79%
05:00 +13°C° 0 mm 4 m/S 763 mmHg 77%
06:00 +13°C° 0 mm 4 m/S 764 mmHg 75%
07:00 +14°C° 0 mm 4 m/S 764 mmHg 71%
08:00 +14°C° 0 mm 4 m/S 764 mmHg 68%
09:00 +15°C° 0 mm 4 m/S 764 mmHg 64%
10:00 +17°C° 0 mm 4 m/S 764 mmHg 60%
11:00 +18°C° 0 mm 4 m/S 764 mmHg 57%
12:00 +20°C° 0 mm 4 m/S 764 mmHg 54%
13:00 +20°C° 0 mm 4 m/S 764 mmHg 53%
14:00 +21°C° 0 mm 4 m/S 764 mmHg 52%
15:00 +22°C° 0 mm 4 m/S 764 mmHg 51%
16:00 +21°C° 0 mm 4 m/S 763 mmHg 55%
17:00 +21°C° 0 mm 4 m/S 763 mmHg 58%
18:00 +20°C° 0 mm 4 m/S 763 mmHg 62%
19:00 +19°C° 0 mm 4 m/S 764 mmHg 68%
20:00 +17°C° 0 mm 4 m/S 764 mmHg 75%
21:00 +14°C° 0 mm 4 m/S 764 mmHg 82%
22:00 +13°C° 0 mm 3 m/S 764 mmHg 86%
23:00 +13°C° 0 mm 3 m/S 764 mmHg 90%

24 Juni, Donnerstag

Zeit Temperatur Niederschläge Wind Luftdruck Luftfeuchtigkeit
00:00 +12°C° 0 mm 3 m/S 764 mmHg 95%
01:00 +12°C° 0 mm 3 m/S 764 mmHg 95%
02:00 +11°C° 0 mm 3 m/S 764 mmHg 96%
03:00 +11°C° 0 mm 3 m/S 764 mmHg 96%
04:00 +12°C° 0 mm 3 m/S 764 mmHg 92%
05:00 +13°C° 0 mm 3 m/S 764 mmHg 88%
06:00 +14°C° 0 mm 3 m/S 764 mmHg 83%
07:00 +16°C° 0 mm 3 m/S 764 mmHg 76%
08:00 +18°C° 0 mm 3 m/S 764 mmHg 69%
09:00 +20°C° 0 mm 3 m/S 764 mmHg 62%
10:00 +21°C° 0 mm 3 m/S 763 mmHg 58%
11:00 +22°C° 0 mm 3 m/S 763 mmHg 54%
12:00 +24°C° 0 mm 3 m/S 763 mmHg 49%
13:00 +24°C° 0 mm 3 m/S 763 mmHg 48%
14:00 +24°C° 0 mm 3 m/S 763 mmHg 48%
15:00 +25°C° 0 mm 3 m/S 762 mmHg 47%
16:00 +24°C° 0 mm 3 m/S 762 mmHg 52%
17:00 +22°C° 0 mm 4 m/S 762 mmHg 58%
18:00 +21°C° 0 mm 4 m/S 762 mmHg 63%
19:00 +20°C° 0 mm 3 m/S 763 mmHg 71%
20:00 +18°C° 0 mm 3 m/S 763 mmHg 80%
21:00 +16°C° 0 mm 3 m/S 763 mmHg 89%
22:00 +14°C° 0 mm 3 m/S 763 mmHg 90%
23:00 +13°C° 0 mm 3 m/S 763 mmHg 92%

25 Juni, Freitag

Zeit Temperatur Niederschläge Wind Luftdruck Luftfeuchtigkeit
00:00 +13°C° 0 mm 2 m/S 763 mmHg 94%
01:00 +13°C° 0 mm 2 m/S 763 mmHg 94%
02:00 +12°C° 0 mm 2 m/S 764 mmHg 94%
03:00 +12°C° 0 mm 2 m/S 764 mmHg 94%
04:00 +13°C° 0 mm 2 m/S 764 mmHg 89%
05:00 +14°C° 0 mm 2 m/S 764 mmHg 84%
06:00 +15°C° 0 mm 2 m/S 764 mmHg 80%
07:00 +17°C° 0 mm 2 m/S 764 mmHg 73%
08:00 +18°C° 0 mm 2 m/S 764 mmHg 66%
09:00 +20°C° 0 mm 2 m/S 764 mmHg 59%
10:00 +21°C° 0 mm 2 m/S 764 mmHg 55%
11:00 +22°C° 0 mm 3 m/S 764 mmHg 52%
12:00 +24°C° 0 mm 3 m/S 764 mmHg 49%
13:00 +24°C° 0 mm 3 m/S 764 mmHg 49%
14:00 +24°C° 0 mm 3 m/S 763 mmHg 50%
15:00 +25°C° 0 mm 4 m/S 763 mmHg 50%
16:00 +23°C° 0 mm 4 m/S 763 mmHg 55%
17:00 +22°C° 0 mm 4 m/S 764 mmHg 59%
18:00 +21°C° 0 mm 4 m/S 764 mmHg 63%
19:00 +19°C° 0 mm 3 m/S 764 mmHg 69%
20:00 +18°C° 0 mm 3 m/S 764 mmHg 75%
21:00 +16°C° 0 mm 2 m/S 765 mmHg 81%
22:00 +15°C° 0 mm 2 m/S 765 mmHg 84%
23:00 +15°C° 0 mm 2 m/S 765 mmHg 86%

26 Juni, Samstag

Zeit Temperatur Niederschläge Wind Luftdruck Luftfeuchtigkeit
00:00 +14°C° 0 mm 2 m/S 765 mmHg 89%
01:00 +14°C° 0 mm 2 m/S 765 mmHg 90%
02:00 +14°C° 0 mm 1 m/S 765 mmHg 91%
03:00 +13°C° 0 mm 1 m/S 765 mmHg 92%
04:00 +15°C° 0 mm 1 m/S 765 mmHg 88%
05:00 +16°C° 0 mm 1 m/S 766 mmHg 83%
06:00 +17°C° 0 mm 2 m/S 766 mmHg 78%
07:00 +18°C° 0 mm 2 m/S 766 mmHg 73%
08:00 +20°C° 0 mm 2 m/S 766 mmHg 68%
09:00 +23°C° 0 mm 2 m/S 766 mmHg 62%
10:00 +24°C° 0 mm 3 m/S 765 mmHg 59%
11:00 +25°C° 0 mm 3 m/S 765 mmHg 57%
12:00 +25°C° 0 mm 4 m/S 765 mmHg 54%
13:00 +26°C° 0 mm 4 m/S 765 mmHg 54%
14:00 +26°C° 0 mm 4 m/S 765 mmHg 53%
15:00 +26°C° 0 mm 4 m/S 765 mmHg 53%
16:00 +25°C° 0 mm 4 m/S 765 mmHg 57%
17:00 +23°C° 0 mm 4 m/S 765 mmHg 61%
18:00 +22°C° 0 mm 4 m/S 765 mmHg 65%
19:00 +20°C° 0 mm 4 m/S 765 mmHg 72%
20:00 +18°C° 0 mm 3 m/S 766 mmHg 80%
21:00 +16°C° 0 mm 3 m/S 766 mmHg 87%
22:00 +16°C° 0 mm 2 m/S 766 mmHg 89%
23:00 +15°C° 0 mm 2 m/S 766 mmHg 91%
Mehr zeigen

Wir brauchen deine Erlaubnis

Meteoprog und unser Service Anbieter werden persönliche Daten aufbewahren, so wie Cookies, Geräte Bezeichnung oder ähnliche Technologien von deinem Gerät und Prozess, so wie Persönliche Daten Inhalte und Werbungen, genauso wie social Media und den Verkehr zu analysieren.

  • Aufbewahrung und/oder Zugang zu deiner Geräte Informationen.

    Cookies, Geräte Bezeichnung oder andere Informationen, können aufbewahrt oder Zugang zu deinem Gerät erhalten, für den Grund, der oben angegeben wird.

  • Personalisierte Werbung und Inhalte, Messungen, Einblick in das Publikum und Produkt Entwicklung.

    Werbungen und Inhalte können personalisiert werden, basierend auf ein Profil. Mehr Daten können besser personalisierte Werbungen und Inhalte hinzufügen. Werbung und Inhalte können gezeigt und gemessen werden. Einblicke über das Publikum, welche die Werbung gesehen haben und den Inhalt, können abgeleitet werden. So wie Daten können genutzt werden, um es zu verbessern oder die Benutzer Erfahrung zu verbessern das System und die Software.

Wenn du “Ich stimme zu” klickst, erlaubst du uns, die Cookies zu benutzen die Geräte Bezeichnung, den Web oder ähnliche Technologien zu benutzen. Deine Settings, können in deinem Gerät bei deinem Browser geändert werden.

Für den bestimmten Zweck, berechtigten Interessen beruhen darauf, mehr als auf den Inhalt. Du kannst mehr darüber in unseren Privaten und Cookie Politik lesen.